Weather History for Sedalia, MO

Change the Weather History Date:

Monday, December 10, 2012

  Actual Average Record
Temperature  
Mean Temperature 25 °F 36 °F  
Max Temperature 32 °F 45 °F 69 °F (1970)
Min Temperature 18 °F 28 °F 1 °F (1977)
Degree Days  
Heating Degree Days 40 29  
Month to date heating degree days 170 272  
Since 1 July heating degree days 1047 1117  
Cooling Degree Days 0 0  
Month to date cooling degree days 0 0  
Year to date cooling degree days 2111 1490  
Moisture  
Dew Point 15 °F    
Average Humidity 68    
Maximum Humidity 77    
Minimum Humidity 58    
Precipitation  
Precipitation 0.00 in 0.06 in 1.21 in (1943)
Month to date precipitation 0.11 0.73  
Year to date precipitation 29.53 39.52  
Sea Level Pressure  
Sea Level Pressure 30.06 in    
Wind  
Wind Speed 9 mph (WNW)    
Max Wind Speed 22 mph    
Max Gust Speed 28 mph    
Visibility 10 miles    
Events      
T = Trace of Precipitation, MM = Missing Value Source: NWS Daily Summary

Daily Weather History Graph

Daily Weather History Graph

Search for Another Location

Airport:

Trip Planner

Search our weather history database for the weather conditions in past years. The results will help you decide how hot, cold, wet, or windy it might be!

Date:

Astronomy

Dec. 10, 2012 Rise Set
Actual Time 7:20 AM CST 4:51 PM CST
Civil Twilight 6:50 AM CST 5:21 PM CST
Nautical Twilight 6:17 AM CST 5:54 PM CST
Astronomical Twilight 5:44 AM CST 6:26 PM CST
Moon 4:05 AM CST (12/10) 2:40 PM CST (12/10)
Length of Visible Light 10h 30m
Length of Day
9h 31m
Waning Crescent, 10% of the Moon is Illuminated
Dec 10
Waning Crescent
Dec 13
New
Dec 19
First Quarter
Dec 28
Full
Jan 4
Last Quarter

Hourly Weather History & Observations

Time (CST) Temp. Windchill Dew Point Humidity Pressure Visibility Wind Dir Wind Speed Gust Speed Precip Events Conditions
12:53 AM 23.0 °F 9.6 °F 12.9 °F 65% 30.04 in 10.0 mi NW 16.1 mph 24.2 mph N/A   Clear
1:53 AM 21.9 °F 10.4 °F 12.9 °F 68% 30.03 in 10.0 mi NW 11.5 mph 21.9 mph N/A   Clear
2:53 AM 21.9 °F 10.4 °F 12.9 °F 68% 30.04 in 10.0 mi WNW 11.5 mph - N/A   Overcast
3:17 AM 21.2 °F 8.9 °F 12.2 °F 68% 30.01 in 10.0 mi WNW 12.7 mph 19.6 mph N/A   Overcast
3:53 AM 21.9 °F 9.2 °F 12.9 °F 68% 30.02 in 10.0 mi NW 13.8 mph 18.4 mph N/A   Overcast
4:53 AM 21.9 °F 9.2 °F 12.9 °F 68% 30.04 in 10.0 mi WNW 13.8 mph - N/A   Overcast
5:53 AM 21.9 °F 8.2 °F 12.9 °F 68% 30.04 in 10.0 mi WNW 16.1 mph - N/A   Overcast
6:53 AM 21.9 °F 8.7 °F 12.9 °F 68% 30.07 in 10.0 mi WNW 15.0 mph 20.7 mph N/A   Overcast
7:44 AM 21.2 °F 8.3 °F 12.2 °F 68% 30.05 in 10.0 mi WNW 13.8 mph - N/A   Overcast
7:53 AM 21.9 °F 9.8 °F 12.9 °F 68% 30.09 in 10.0 mi WNW 12.7 mph - N/A   Overcast
8:53 AM 23.0 °F 11.7 °F 12.9 °F 65% 30.10 in 10.0 mi WNW 11.5 mph - N/A   Overcast
9:40 AM 23.0 °F 11.7 °F 12.2 °F 63% 30.06 in 10.0 mi WNW 11.5 mph - N/A   Overcast
9:53 AM 23.0 °F 13.1 °F 12.9 °F 65% 30.09 in 10.0 mi WNW 9.2 mph - N/A   Overcast
10:53 AM 25.0 °F 16.3 °F 15.1 °F 66% 30.09 in 10.0 mi WNW 8.1 mph - N/A   Overcast
11:53 AM 27.0 °F 17.3 °F 16.0 °F 63% 30.08 in 10.0 mi WNW 10.4 mph - N/A   Overcast
12:53 PM 28.0 °F 19.3 °F 17.1 °F 63% 30.05 in 10.0 mi WNW 9.2 mph - N/A   Overcast
1:53 PM 30.0 °F 21.1 °F 18.0 °F 61% 30.06 in 10.0 mi WNW 10.4 mph - N/A   Overcast
2:53 PM 30.0 °F 23.2 °F 18.0 °F 61% 30.05 in 10.0 mi West 6.9 mph - N/A   Mostly Cloudy
3:02 PM 30.2 °F 22.6 °F 17.6 °F 60% 30.02 in 10.0 mi WNW 8.1 mph - N/A   Scattered Clouds
3:27 PM 30.2 °F 25.4 °F 19.4 °F 64% 30.02 in 10.0 mi WNW 4.6 mph - N/A   Mostly Cloudy
3:53 PM 30.0 °F 21.7 °F 18.0 °F 61% 30.06 in 10.0 mi WNW 9.2 mph - N/A   Partly Cloudy
4:53 PM 27.0 °F 20.5 °F 17.1 °F 66% 30.06 in 10.0 mi WNW 5.8 mph - N/A   Clear
5:53 PM 26.1 °F 20.5 °F 17.1 °F 69% 30.06 in 10.0 mi West 4.6 mph - N/A   Clear
6:53 PM 25.0 °F 20.7 °F 16.0 °F 69% 30.07 in 10.0 mi SW 3.5 mph - N/A   Clear
7:53 PM 23.0 °F 17.0 °F 16.0 °F 74% 30.08 in 10.0 mi SW 4.6 mph - N/A   Clear
8:53 PM 21.9 °F 14.5 °F 15.1 °F 75% 30.09 in 10.0 mi SSW 5.8 mph - N/A   Clear
9:53 PM 21.0 °F 14.6 °F 15.1 °F 78% 30.10 in 10.0 mi WSW 4.6 mph - N/A   Clear
10:53 PM 21.0 °F 14.6 °F 15.1 °F 78% 30.09 in 10.0 mi SSW 4.6 mph - N/A   Clear
11:53 PM 19.0 °F 12.3 °F 14.0 °F 81% 30.09 in 10.0 mi SSW 4.6 mph - N/A   Clear